TIME,DELAY(SENSOR),PRES,T(CTD),SAL,OXYGEN,RAWTEMP,T(OPTODE),TCPHASE,FLUOR,BETA(BETA700),BETA(BETA412),BETA(BETA440),CDOM,C(CSC),ED(ED412.40),ED(ED444.00),ED(ED489.70),ED(ED554.30),LU(LU411.80),LU(LU443.40),LU(LU489.60),LU(LU554.10),COMP,TILTX,TILTX(TILTY),CHECK
1380749447,5808,494.4400024414062500,6.7769999504089355,34.1407012939453100,79.0737228393554700,594.3449707031250000,6.7667899131774900,48.9353790283203100,52,104,87,80,77,15250,2147749074,2147426678,2148010624,2147870180,2147630061,2147076059,2148245933,2147199606,2524,4,13,56806
1380749582,5807,483.5899963378906000,6.9045000076293945,34.1254997253418000,85.6585388183593800,590.5969238281250000,6.8876042366027830,48.1161689758300800,52,106,89,80,76,15250,2147747282,2147426834,2148010669,2147869522,2147624667,2147075273,2148245750,2147197997,2167,3,13,44643
1380749725,5808,472.5499877929687500,7.0885000228881840,34.1114006042480500,93.7415466308593800,584.3718261718750000,7.0879669189453125,47.1213798522949200,51,102,88,79,77,15248,2147745398,2147424731,2148007222,2147871552,2147626185,2147076123,2148244470,2147196937,756,3,13,35825
1380749868,5807,461.8399963378906000,7.2498002052307130,34.1083984375000000,99.5537567138671900,579.9490966796875000,7.2301011085510250,46.4285011291503900,51,103,86,78,76,15249,2147744557,2147425152,2148007597,2147870546,2147626998,2147073298,2148245540,2147203931,298,4,13,46030
1380750022,5811,448.6099853515625000,7.5023999214172360,34.1036987304687500,108.2891998291015600,571.6666259765625000,7.4958081245422360,45.3917388916015600,52,103,86,79,77,15247,2147748608,2147426029,2148006418,2147870354,2147625600,2147077842,2148242898,2147203949,3448,4,13,52545
1380750132,5806,437.9200134277344000,7.6675000190734860,34.1002998352050800,114.6678009033203100,566.9865722656250000,7.6456761360168460,44.6811408996582000,51,103,85,79,75,15249,2147743780,2147426733,2148009051,2147873910,2147622838,2147076617,2148237248,2147201563,2751,3,13,21910
1380750245,5806,427.3599853515625000,7.8382000923156740,34.0932998657226560,123.2359008789062500,561.6892700195312000,7.8150839805603030,43.7723808288574200,50,103,82,80,73,15250,2147742564,2147423725,2148007085,2147871625,2147621339,2147079085,2148240402,2147199862,1613,3,13,59311
1380750366,5804,416.3500061035156000,8.1115999221801760,34.0951004028320300,133.8601074218750000,552.9395751953125000,8.0943784713745120,42.6582412719726560,50,104,86,77,75,15251,2147742582,2147425398,2148006957,2147872512,2147622957,2147080722,2148236480,2147204534,1075,4,13,2931
1380750487,5810,405.9500122070312500,8.3417997360229500,34.0980987548828100,140.0628967285156200,545.7636108398438000,8.3229598999023440,41.9961891174316400,51,103,87,78,73,15249,2147740672,2147426349,2148005604,2147870665,2147618980,2147085293,2148237906,2147202688,3588,3,13,29356
1380750621,5809,395.2699890136719000,8.6803998947143550,34.0989990234375000,150.0005035400390600,534.6052246093750000,8.6775684356689450,40.9730796813964840,50,103,85,79,73,15248,2147737216,2147425380,2148008438,2147873526,2147618459,2147082669,2148227117,2147202441,2824,4,13,14269
1380750764,5809,384.8599853515625000,8.9582996368408200,34.1072006225585940,156.8755035400390600,526.0667724609375000,8.9482536315917970,40.2781715393066400,50,104,88,79,74,15249,2147735177,2147425280,2148009133,2147871003,2147616338,2147089883,2148232630,2147202304,1759,4,13,17638
1380750927,5809,371.6799926757812500,9.4822998046875000,34.1147994995117200,165.3256072998047000,509.9324951171875000,9.4582395553588870,39.3534507751464840,49,104,88,78,71,15244,2147740379,2147427273,2148007332,2147873609,2147614756,2147086537,2148231936,2147201069,1551,4,13,43077
1380751037,5809,361.2200012207031000,9.9477996826171880,34.1199989318847660,167.1154022216797000,494.0091857910156000,9.9597158432006840,38.9482994079589840,50,106,83,79,71,15245,2147737179,2147428004,2148010404,2147870774,2147612717,2147094281,2148225618,2147201682,1463,3,13,56675
1380751161,5808,349.8399963378906000,10.3008003234863280,34.1263999938964840,180.5776977539062500,483.9142150878906000,10.2767400741577150,37.8167304992675800,49,105,87,80,69,15246,2147735917,2147427812,2148011026,2147869202,2147609938,2147095250,2148226221,2147202441,335,3,13,5167
1380751282,5808,338.9500122070312500,10.6373996734619140,34.1384010314941400,185.9990997314453000,470.9671936035156000,10.6823501586914060,37.2338218688964840,49,106,87,80,70,15246,2147734336,2147428489,2148013193,2147873563,2147610121,2147102518,2148219721,2147205229,2451,2,13,63047
1380751403,5809,327.9899902343750000,11.1388998031616210,34.1475982666015600,191.1972961425781200,456.5588073730469000,11.1325302124023440,36.6547889709472660,49,103,87,79,69,15245,2147732269,2147430125,2148015826,2147871104,2147605138,2147109056,2148223552,2147204617,1034,3,13,19977
1380751526,5805,317.3099975585937500,11.5738000869750980,34.1581993103027340,187.7966003417968800,441.6199035644531000,11.5979995727539060,36.6315917968750000,49,103,86,79,69,15245,2147728850,2147432749,2148022921,2147871634,2147604480,2147111497,2148224027,2147207515,2609,3,13,28605
1380751647,5811,306.0799865722656000,12.1673002243042000,34.2069015502929700,197.7373962402343800,422.9144897460937500,12.1791200637817380,35.6954002380371100,48,103,86,78,68,15245,2147730139,2147428233,2148018011,2147870299,2147598948,2147109888,2148218907,2147208676,1388,3,14,59125
1380751782,5809,296.2000122070312500,12.7945995330810550,34.2613983154296900,212.2933044433593800,403.1153869628906000,12.7923297882080080,34.5181808471679700,49,105,86,79,68,15243,2147730002,2147436854,2148037174,2147869458,2147597220,2147124333,2148229705,2147210194,375,3,13,30223
1380751947,5805,285.3200073242187500,13.6486997604370120,34.3258018493652340,217.4398956298828000,375.6564025878906000,13.6399202346801760,33.8068389892578100,49,101,87,79,66,15242,2147725531,2147440987,2148051501,2147872429,2147596672,2147131830,2148226468,2147206427,614,3,14,32695
1380752143,5808,272.0599975585937500,14.3238000869750980,34.3885002136230500,218.9219055175781200,353.1577148437500000,14.3322601318359380,33.3869400024414060,48,101,85,79,64,15243,2147721124,2147440649,2148040612,2147868388,2147588525,2147134336,2148221568,2147208045,2749,3,14,4068
1380752263,5811,261.0700073242187500,14.8228998184204100,34.4275016784668000,217.9284057617187500,336.9926147460937500,14.8286895751953120,33.2011909484863300,49,103,84,78,65,15241,2147720118,2147460726,2148103222,2147870482,2147587547,2147149494,2148244333,2147211126,1560,3,15,5322
1380752376,5810,250.3999938964843800,14.9776000976562500,34.4411010742187500,215.9445037841797000,332.1763916015625000,14.9764499664306640,33.2385902404785160,48,103,87,80,65,15237,2147721947,2147484653,2148158765,2147871707,2147587922,2147163437,2148270710,2147215899,1119,3,15,31187
1380752486,5804,239.6799926757812500,15.8524999618530270,34.5289993286132800,214.2310943603515600,304.1123962402344000,15.8363304138183600,32.9224281311035160,49,104,86,81,65,15239,2147722852,2147508251,2148210148,2147870802,2147584228,2147178377,2148291629,2147216950,226,3,14,8070
1380752596,5811,229.3300018310547000,16.5251007080078120,34.6175003051757800,216.7622985839843800,281.4848022460937500,16.5284996032714840,32.4586296081543000,48,104,86,79,64,15236,2147732544,2147543707,2148282697,2147869339,2147584402,2147203556,2148329728,2147215177,2580,4,14,42849
1380752720,5805,218.5599975585937500,17.1476993560791000,34.6922988891601560,215.7463989257812500,261.0632019042969000,17.1525993347167970,32.2241401672363300,50,102,88,80,65,15234,2147737206,2147604114,2148406774,2147871524,2147584493,2147243876,2148381760,2147224228,3545,3,14,53437
1380752863,5808,207.9600067138672000,18.0907001495361330,34.8226013183593750,213.4078063964843800,227.2872009277343800,18.1841793060302730,31.8787498474121100,51,103,88,79,64,15229,2147741449,2147594450,2148350674,2147871990,2147583085,2147246720,2148351277,2147221238,236,3,14,21966
1380753042,5808,199.0200042724609400,19.1294002532959000,34.9780006408691400,217.1730957031250000,197.1087951660156200,19.1059093475341800,31.2633895874023440,54,106,84,79,63,15224,2147781869,2147769526,2148726793,2147873371,2147595849,2147366180,2148531931,2147234249,2242,2,14,64885
1380753163,5809,194.6499938964843800,19.2334003448486330,34.9981994628906250,218.8542022705078000,192.6044006347656200,19.2435302734375000,31.1139392852783200,54,104,82,80,63,15224,2147796306,2147820406,2148808192,2147874258,2147599195,2147397504,2148561563,2147240502,1015,2,15,53889
1380753262,5804,190.5599975585937500,19.4043006896972660,35.0223007202148440,218.9575042724609400,187.4983062744140600,19.3995609283447270,31.0394306182861330,54,104,85,80,62,15218,2147769581,2147701129,2148525604,2147870884,2147588580,2147334729,2148441289,2147232850,1345,2,15,46296
1380753352,5811,186.0200042724609400,19.5219993591308600,35.0396995544433600,219.3800964355468800,183.7057037353515600,19.5154800415039060,30.9665603637695300,54,104,88,79,63,15222,2147852672,2147994249,2149120457,2147874075,2147623012,2147509211,2148727890,2147256365,235,2,14,35862
1380753418,5808,182.3300018310547000,19.9405002593994140,35.0797004699707000,218.5758056640625000,170.0037994384765600,19.9343891143798830,30.8243904113769530,58,105,85,80,62,15216,2147878272,2148066395,2149243830,2147878802,2147634194,2147552228,2148782107,2147257526,3146,2,16,33186
1380753495,5806,178.6999969482422000,20.0303993225097660,35.0947990417480500,219.4851989746093800,167.0536956787109400,20.0246200561523440,30.7378597259521500,60,105,85,81,61,15212,2147907456,2148130185,2149349229,2147872036,2147643556,2147592960,2148835547,2147262262,3063,2,15,23978
1380753583,5810,174.8600006103515600,20.0981998443603500,35.1038017272949200,220.6797943115234400,164.7360992431640600,20.0955200195312500,30.6452999114990230,61,108,85,80,61,15213,2147935661,2148173275,2149417069,2147875099,2147657307,2147615689,2148849078,2147264594,2608,2,15,13368
1380753684,5806,170.6699981689453000,20.2954998016357420,35.1288986206054700,221.5722961425781200,158.5214996337890600,20.2856693267822270,30.5172290802001950,62,104,86,80,61,15209,2147888091,2147981906,2149016685,2147874541,2147639661,2147525577,2148688795,2147252150,3178,2,15,55833
1380753783,5811,166.5299987792968800,20.5704994201660160,35.1674995422363300,221.5847930908203000,148.4725036621093800,20.5932903289794920,30.3836097717285160,67,108,88,80,62,15208,2148064868,2148446701,2149860580,2147878052,2147716443,2147790363,2149079926,2147277238,2887,1,15,63938
1380753871,5807,162.6000061035156200,20.8122005462646500,35.1945991516113300,222.3556976318359400,141.5034942626953000,20.8067493438720700,30.2527999877929700,72,114,86,81,61,15198,2148136228,2148593161,2150114285,2147877193,2147749110,2147883291,2149192923,2147288073,1907,2,16,32104
1380753962,5809,158.4299926757812500,20.9274997711181640,35.1966018676757800,224.1882019042968800,137.9205017089843800,20.9165306091308600,30.1136398315429700,77,109,86,81,61,15194,2148234048,2148785060,2150439817,2147883044,2147791725,2148004050,2149342436,2147296402,1868,2,15,55502
1380754050,5810,154.6499938964843800,20.9622993469238280,35.2019996643066400,226.2276000976562500,136.4429931640625000,20.9618091583251950,29.9928092956542970,80,115,84,81,60,15195,2148082413,2148320283,2149500324,2147877037,2147733248,2147732242,2148918902,2147273106,2119,2,15,3046
1380754149,5809,150.9499969482422000,21.1580009460449220,35.2262992858886700,226.5303039550781200,130.5626983642578000,21.1420803070068360,29.9011497497558600,84,112,84,81,61,15184,2148530386,2149326820,2151302710,2147888868,2147923675,2148299136,2149722486,2147328795,2205,2,15,1958
1380754278,5806,146.9900054931640600,21.3612995147705080,35.2444000244140600,227.6522979736328000,123.6610031127929700,21.3537807464599600,29.7565307617187500,88,116,86,81,60,15173,2148096475,2148209408,2149186349,2147878491,2147736228,2147656548,2148744850,2147260946,1491,2,16,62091
1380754377,5807,142.8000030517578000,21.5526008605957030,35.2686996459960940,228.9667053222656200,117.4450988769531200,21.5445499420166000,29.6120891571044920,98,115,87,81,61,15169,2148641408,2149227776,2150810825,2147890240,2147967908,2148199396,2149451291,2147314614,1681,2,15,10582
1380754465,5806,138.8899993896484400,21.7745990753173830,35.2858009338378900,230.2071990966797000,111.7780990600586000,21.7185592651367200,29.4790306091308600,105,116,87,81,60,15152,2149610477,2151063341,2153834258,2147914441,2148379401,2149175478,2150776320,2147414189,1759,2,15,28994
1380754567,5808,134.8300018310547000,21.8589992523193360,35.2971992492675800,231.2895050048828000,107.3876037597656200,21.8534507751464840,29.3705692291259770,108,117,88,81,61,15154,2150012882,2151613385,2154594441,2147924772,2148533001,2149403410,2151058002,2147435126,237,1,15,30751
1380754666,5807,130.9700012207031200,21.9302005767822270,35.2891998291015600,232.4642944335937500,105.9077987670898400,21.8989295959472660,29.2956790924072270,112,117,86,81,60,15143,2150423058,2152163008,2155300708,2147933778,2148687232,2149615579,2151293906,2147461705,3059,2,15,33022
1380754776,5815,127.0100021362304700,22.0300006866455080,35.2976989746093750,234.1887969970703000,102.0053024291992200,22.0188903808593750,29.1645107269287100,122,118,89,83,60,15137,2151086381,2153076507,2156487707,2147953398,2148936274,2149983085,2151706523,2147499282,2689,2,16,24583
1380754883,5811,122.8600006103515600,22.3314990997314450,35.3344993591308600,235.6130981445312500,92.2973175048828100,22.3175392150878900,28.9742202758789060,125,119,87,83,59,15130,2152121225,2154495442,2158286354,2147981595,2149326290,2150565120,2152358217,2147557961,2831,2,15,33324
1380754971,5808,118.8000030517578100,22.5384998321533200,35.3223991394043000,238.6307983398437500,85.7088088989257800,22.5204105377197270,28.7514705657959000,107,117,87,82,58,15138,2153308434,2156005979,2160001051,2148010093,2149781814,2151179053,2153012342,2147625764,3286,2,15,47491
1380755070,5807,115.0500030517578100,22.8285007476806640,35.3400001525878900,240.7877960205078000,76.0599212646484400,22.8178100585937500,28.5320091247558600,110,115,87,82,58,15125,2155050752,2158277001,2162595812,2148053869,2150504009,2152202962,2154067675,2147724598,559,2,15,37480
1380755188,5810,110.4800033569336000,22.9428997039794920,35.3364982604980500,243.0782928466797000,72.2459869384765600,22.9354591369628900,28.3811798095703120,94,118,87,82,59,15131,2157721700,2161626185,2166243172,2148133696,2151683163,2153814281,2155690560,2147873334,1288,1,16,51210
1380755265,5807,106.1200027465820300,23.1145992279052730,35.3359985351562500,244.3795013427734400,67.4899978637695300,23.0822601318359380,28.2640895843505860,87,121,88,83,59,15115,2160569088,2164981531,2169765476,2148227574,2152972918,2155539675,2157386971,2148038016,747,2,15,27072
1380755331,5806,102.5899963378906200,23.1259002685546880,35.3387985229492200,245.5948028564453000,66.2376403808593800,23.1209297180175780,28.1947593688964840,88,122,88,84,59,15117,2163495168,2168478418,2173477705,2148328749,2154324818,2157327350,2159120960,2148201014,783,1,15,42706
1380755408,5808,98.4899978637695300,23.2254009246826170,35.3363990783691400,246.1139984130859400,62.8028488159179700,23.2270202636718750,28.1293506622314450,85,120,88,82,57,15114,2166753398,2172107730,2177206454,2148483867,2155712914,2159017417,2160649590,2148356864,3545,1,16,8203
1380755465,5805,95.8499984741211000,23.3945007324218750,35.3297004699707000,247.0220947265625000,57.7839698791503900,23.3821392059326170,28.0272693634033200,81,123,87,84,58,15116,2156963876,2158368347,2159701613,2148101778,2151690240,2152711378,2153509220,2147709504,3073,1,16,49539
1380755520,5808,93.6699981689453100,23.4867000579834000,35.3278999328613300,248.0962066650390600,54.7506408691406250,23.4759407043457030,27.9430809020996100,80,123,89,83,57,15109,2155289627,2155816128,2156319277,2148032768,2150969746,2151444918,2151988516,2147579730,3198,2,16,7897
1380755575,5805,91.7099990844726600,23.6254997253417970,35.3260002136230500,248.6098022460937500,51.1865196228027340,23.5862102508544920,27.8768196105957030,82,124,89,84,58,15109,2175434432,2181418331,2185995044,2148819200,2160055826,2164331757,2165406226,2148821440,3002,1,16,33851
1380755630,5806,89.9199981689453100,23.7618007659912100,35.3268013000488300,248.9512023925781200,46.6333198547363300,23.7271595001220700,27.8057098388671880,80,129,90,84,58,15109,2177779236,2183797193,2188138852,2148934034,2161209828,2165613430,2166397924,2148929737,2958,1,16,20009
1380755696,5810,88.0800018310546900,23.9073009490966800,35.3302993774414060,249.4001007080078000,41.8512611389160160,23.8753108978271500,27.7274608612060550,78,124,90,85,58,15103,2180605430,2186849033,2191121856,2149086134,2162612553,2167241216,2167787913,2149073883,2802,1,16,48431
1380755803,5808,85.3700027465820300,24.0627002716064450,35.3343009948730500,250.3809967041015600,36.2630500793457000,24.0485591888427730,27.6167297363281250,78,126,92,85,57,15100,2187282112,2194275812,2198359204,2149456164,2166277586,2171567241,2171463826,2149465380,1965,1,16,52590
1380755858,5809,83.2699966430664000,24.2152004241943360,35.3326988220214840,250.8482055664062500,31.3423194885253900,24.2012500762939450,27.5364608764648440,77,125,87,86,57,15096,2190324086,2197153261,2200865033,2149674322,2168142546,2173532470,2172951085,2149638043,1719,1,16,33564
1380755913,5807,81.4300003051757800,24.3017005920410160,35.3311004638671900,251.6535034179687500,28.2087707519531250,24.2985496520996100,27.4640903472900400,78,125,90,85,58,15093,2194068269,2200798390,2204236653,2149867099,2170084690,2175621778,2174478582,2149791149,1141,1,16,57575
1380755968,5808,79.9100036621093800,24.3824005126953120,35.3339996337890600,251.9752044677734400,25.7914791107177730,24.3736495971679700,27.4209194183349600,76,123,90,85,57,15094,2196428580,2202606848,2205339721,2150003913,2171762212,2177309385,2175676242,2149935012,925,1,16,13887
1380756034,5807,78.5599975585937500,24.5916004180908200,35.3344001770019500,251.9837951660156200,19.5266304016113280,24.5684108734130860,27.3439998626709000,76,126,95,86,58,15082,2198547995,2204648036,2206873462,2150146496,2173315748,2178907849,2176812836,2150061430,1408,0,16,55867
1380756151,5807,76.1299972534179700,24.6467990875244140,35.3372001647949200,252.2171020507812500,16.6880207061767580,24.6567192077636720,27.2995204925537100,75,127,91,85,55,15073,2206775899,2212526290,2213661723,2150608493,2178427318,2184141878,2180611830,2150463524,1325,1,16,19157
1380756217,5808,74.0299987792968800,24.8516998291015620,35.3378982543945300,251.9286956787109400,12.0690298080444340,24.8005294799804700,27.2554798126220700,74,128,92,85,57,15081,2213471177,2219350921,2219845275,2151111670,2182659629,2188581888,2184056475,2150871186,1321,1,16,18136
1380756283,5818,72.1999969482421900,24.9484004974365230,35.3395004272460940,251.4208068847656200,8.1184015274047850,24.9236106872558600,27.2287101745605470,72,127,90,85,58,15080,2212896594,2216948754,2215914578,2151056978,2182949723,2187664137,2182056704,2150711680,1839,1,16,43050
1380756360,5809,70.1100006103515600,24.9864006042480470,35.3387985229492200,251.5433044433593800,6.2878580093383790,24.9806804656982420,27.2012901306152340,71,124,94,86,55,15083,2228654299,2233408173,2232368192,2152164918,2192683757,2198592457,2191287954,2151635410,2597,1,16,63777
1380756444,5806,67.4400024414062500,25.0776004791259770,35.3376007080078100,251.3833007812500000,3.1176209449768066,25.0795497894287100,27.1694107055664060,68,126,92,84,58,15068,2240482770,2244008950,2242133467,2153250422,2201144649,2207087744,2197420022,2152401014,3562,1,15,42384
1380756499,5808,65.3099975585937500,25.4202995300292970,35.3400001525878900,249.4114074707031200,-8.6509552001953120,25.4470996856689450,27.1097297668457030,65,128,91,83,56,15055,2249213147,2251942006,2248676086,2154120731,2207929901,2213483328,2201796708,2152913124,2975,1,16,30419
1380756554,5803,63.6800003051757800,25.8631000518798830,35.3454017639160160,247.0843048095703000,-20.8456707000732420,25.8288593292236330,27.0605907440185550,64,128,93,85,58,15070,2253148306,2255097234,2251027044,2154555090,2212327378,2217536045,2204467840,2153224713,3017,0,16,19512
1380756620,5809,62.7200012207031250,26.0023002624511720,35.3564987182617200,245.7471923828125000,-25.9313297271728500,25.9883499145507800,27.0562992095947270,65,127,93,88,57,15070,2256052251,2258289664,2254762368,2155180278,2214552969,2219712731,2206137965,2153475483,3088,1,16,39205
1380756771,5805,59.6199989318847660,26.0715007781982420,35.3582000732421900,244.5122985839843800,-28.5669498443603500,26.0710697174072270,27.0773200988769530,63,128,91,87,60,15068,2269824356,2271646354,2267711945,2157455332,2226609389,2231619273,2214854363,2154562340,3093,1,16,18755
1380756826,5810,57.4399986267089840,26.1520004272460940,35.3605995178222660,244.0643005371093800,-31.1915493011474600,26.1534900665283200,27.0647506713867200,64,128,93,87,56,15050,2283506404,2284848859,2279850038,2158991469,2237774400,2242613339,2223065673,2155712475,2951,1,16,54178
1380756881,5807,55.6399993896484400,26.3395004272460940,35.3625984191894500,243.0370941162109400,-35.8421211242675800,26.2996406555175780,27.0529003143310550,61,128,95,88,57,15060,2233489206,2229885577,2222644013,2153971794,2211357522,2212104137,2197193645,2152581366,2751,1,16,29028
1380756936,5805,54.2700004577636700,26.6222000122070300,35.3655014038085940,242.0585937500000000,-41.4591407775878900,26.4763698577880860,27.0271797180175780,62,132,93,88,56,15057,2250451236,2247517878,2239485458,2155832813,2226095085,2227392192,2209024777,2154017426,1903,1,16,39636
1380757054,5810,52.0900001525878900,26.9829006195068360,35.3870010375976560,237.8885955810547000,-56.5205993652343750,26.9513397216796880,27.0273208618164060,61,132,93,88,55,15062,2312974912,2313088749,2306740589,2164350518,2266452763,2269479552,2241800649,2158541933,3573,1,16,1082
1380757131,5809,50.5499992370605500,27.1212005615234380,35.3944015502929700,235.1697998046875000,-61.0262985229492200,27.0937500000000000,27.0933609008789060,59,129,92,85,57,15063,2315891565,2316237915,2309491529,2165289225,2271514889,2273443876,2244278683,2158868662,2845,1,16,48388
1380757369,5808,48.5000000000000000,27.2544994354248050,35.4028015136718750,231.4152984619140600,-66.0396728515625000,27.2523803710937500,27.2019004821777340,58,128,93,86,55,15057,2238875126,2233643364,2225823698,2156284489,2222302601,2218074496,2198333147,2153223625,98,1,16,28640
1380757457,5804,45.9500007629394500,27.3321990966796880,35.4067993164062500,230.3186035156250000,-68.3843765258789000,27.3266391754150400,27.2233295440673830,59,129,92,85,54,15059,2250132242,2245014089,2235798637,2158521179,2237886089,2231317165,2206510016,2154440658,1894,1,16,37988
1380757512,5809,44.2200012207031250,27.4127998352050780,35.4059982299804700,229.4425048828125000,-71.2445220947265600,27.4172706604003900,27.2286396026611330,59,129,90,86,55,15030,2358123483,2358862637,2349932068,2176195355,2333281051,2326815652,2277473636,2164116516,1295,1,17,52483
1380757567,5805,42.6399993896484400,27.4825992584228500,35.4015998840332000,228.7901000976562500,-73.3782730102539000,27.4849395751953120,27.2326202392578120,58,127,92,86,52,15061,2366194633,2364974985,2355555849,2179002432,2345893494,2336954724,2283437248,2165138477,584,0,16,15663
1380757622,5808,41.2500000000000000,27.5736999511718750,35.3657989501953100,227.7895050048828000,-76.4872436523437500,27.5835800170898440,27.2407798767089840,58,126,89,85,56,15056,2364087341,2362733714,2353824502,2180474550,2344652242,2333574125,2279582116,2164854592,183,0,17,20891
1380757706,5811,39.2599983215332000,27.7348003387451170,35.2951011657714840,224.8800048828125000,-81.4533996582031200,27.7413101196289060,27.3156108856201170,56,120,91,83,58,15073,2382335926,2381392731,2372880100,2187588297,2376972580,2362608256,2299040091,2167699821,3411,1,16,37169